STARLINK-37291, 68560

Orbit data source: Space-Track

STARLINK-37291, 68560 is a payload satellite owned by SpaceX/Seattle (US) in LEO that was launched on Thu, 02 Apr 2026 UTC via an FALCON 9 launch vehicle from the Air Force Eastern Test Range (AFETR). Payload-class satellites include a variety of spacecraft equipped with specific instruments for various scientific and technological missions. These include communications satellites like Starlink; space stations such as the ISS; scientific satellites like the Hubble; Earth observation satellites from companies like Planet Labs, Umbra, and HawkEye 360; GPS; miniature CubeSats for education and research; and military/defense satellites.

Loading next visibility...
Identifier
68560, 2026-070U
Orbit
LEO
Country
Flag of USUS
Related business
Manufacturer
SpaceX/Seattle
Mission
Operational spacecraft
Bus & Motor
STARLINK V2MO, Unknown motor
Mass
575 kg wet, ~530 kg dry
Launch date (UTC)
2026-04-02 (2 months ago)
Launch vehicle
FALCON 9
Launch site
Air Force Eastern Test Range (AFETR)
Object type
Payload
Rocket body
Debris
Shape & HBR
Unknown shape, 14.5 m
Radar Cross Section
RCS unknown

Expand to show TLE details & history
Last TLE update: 10 hours ago

TLE from 10 hours ago
0 STARLINK-37291
1 68560U 26070U   26145.58335648  .00042122  00000-0  12519-2 0  9991
2 68560  53.1591   4.7668 0001060  93.3670  17.0260 15.34373341  6025
Epoch: 2026-05-25T14:00Z
TLE epoch observation values (Epoch: 2026-05-25T14:00:01.999Z)
Latitude
48.74914°
Longitude
33.42618°
Altitude
467.622 km
Speed
7.639 km/s
True Right ascension
08h 26m 24s
True Declination
48° 34' 17"
Sunlit
Object was in daylight at epoch
Visualization orbit readout
Latitude
Unknown
Longitude
Unknown
Altitude
Unknown
Speed
Unknown
Apparent Right ascension
Unknown
Apparent Declination
Unknown
Sunlit
N/A
Visualization observer readout
Local Sidereal Time
09:25:07
Azimuth
Unknown
Elevation
Unknown
Doppler factor
Unknown
Orbital elements
Apogee altitude
463.765 km
Perigee altitude
462.314 km
Semi-major axis
6,841.177 km
Eccentricity
0.00011
Inclination
53.1591°
RAAN
4.7668°
Arg. of periapsis
93.367°
True anomaly
17.02956°
Mean anomaly
17.026°
Eccentric anomaly
17.02778°
Mean motion
3.83572 °/min
Orbital period
93.85 mins
BSTAR
0.0012519
Loading maneuver chart data...
Computing Atmospheric mass density...
Loading historical data...
Loading historical data...
Loading historical data...
Loading historical data...
Loading historical data...
Loading historical data...
Loading historical data...

Documentation

Showing up to 5 results
|